Find Starlink 3133

NORAD ID: 49416 Int'l Des: 2021-104 Owner: SPXS Country: US Constellation: starlink operational
LEOCIRCULAR

Live Position

Loading 3D Globe...

About Starlink 3133

Description loading...

Upcoming Passes

Passes for default location (London). Set your location on the main map for personalized predictions.

Altitude History

Loading altitude history...

Two-Line Element Set

1 49416U 21104J 26124.81359199 .00000061 00000-0 21941-4 0 9990
2 49416 53.2188 337.1677 0001385 84.2685 275.8465 15.08827278247106
Epoch: May 4, 2026 • Age: 15 hours

Current Status

Altitude 544.2 km
Velocity 7.60 km/s
Sub-Earth Point 48.00°N, 14.81°E
Launch Date Nov 13, 2021
Age 4.4 years
Type internet

Technical Details

Classification Payload
Mass 290.00 kg
Dry Mass 270.00 kg
Total Mass 290.00 kg
Length 0.20 m
Diameter 2.80 m
Span 9.00 m
Shape Box + pan
Manufacturer SPXS
Bus Type Starlink
Phase Status In Orbit
Owner/State SPXS/US

Most Searched